• MPC Preparation (Info)

  • MPEC 2014-O56 : 2014 OO6

    The following Minor Planet Electronic Circular may be linked-to from your own Web pages, but must not otherwise be redistributed electronically.

    A form allowing access to any MPEC is at the bottom of this page.


    Read MPEC 2014-O55 Read MPEC 2014-O57


    M.P.E.C. 2014-O56                                Issued 2014 July 28, 23:54 UT
    
         The Minor Planet Electronic Circulars contain information on unusual
             minor planets and routine data on comets.  They are published
       on behalf of Commission 20 of the International Astronomical Union by the
              Minor Planet Center, Smithsonian Astrophysical Observatory,
                              Cambridge, MA 02138, U.S.A.
    
                 Prepared using the Tamkin Foundation Computer Network
    
                                  MPC@CFA.HARVARD.EDU
                URL https://www.minorplanetcenter.net/    ISSN 1523-6714
    
                                       2014 OO6
    
    Observations:
         K14O06O* C2014 07 27.37985 20 44 08.937-19 56 35.14         20.7 wLEO056F51
         K14O06O  C2014 07 27.39202 20 44 07.946-19 56 45.79         20.8 wLEO056F51
         K14O06O  C2014 07 27.40421 20 44 06.953-19 56 56.68         20.6 wLEO056F51
         K14O06O  C2014 07 27.41639 20 44 05.951-19 57 06.90         20.8 wLEO056F51
         K14O06O KC2014 07 28.29131120 43 03.93 -20 10 04.8          20.7 VuEO056H21
         K14O06O KC2014 07 28.30019120 43 03.14 -20 10 12.8          20.7 VuEO056H21
         K14O06O KC2014 07 28.30959220 43 02.30 -20 10 21.3          21.0 VuEO056H21
         K14O06O KC2014 07 28.96004 20 42 13.63 -20 19 58.7          20.5 RuEO056194
         K14O06O KC2014 07 28.96943 20 42 12.72 -20 20 07.7          20.2 RuEO056194
         K14O06O KC2014 07 28.97880 20 42 11.82 -20 20 16.8          20.5 RuEO056194
    
    Observer details:
    194 Tivoli.  Observers G. Lehmann, A. Knoefel.  0.4-m f/8 reflector + CCD.
    F51 Pan-STARRS 1, Haleakala.  Observers N. Primak, A. Schultz, T. Goggia,
        M. Willman.  1.8-m Ritchey-Chretien + CCD.
    H21 Astronomical Research Observatory, Westfield.  Observer R. Holmes.
        Measurers L. Buzzi, S. Foglia, T. Vorobjov, T. Linder.  0.81-m f/4.0
        astrograph + CCD.
    
    Orbital elements:
    2014 OO6                                                 Earth MOID = 0.0003 AU
    Epoch 2014 May 23.0 TT = JDT 2456800.5                  MPC
    M 317.54953              (2000.0)            P               Q
    n   0.32044832     Peri.  287.91958     +0.78091544     -0.62428842
    a   2.1149368      Node   110.71565     +0.58120214     +0.71397460
    e   0.6653855      Incl.    1.27776     +0.22885616     +0.31702403
    P   3.08           H   23.2           G   0.15           U   8
    Residuals in seconds of arc
    140727 F51  0.1-  0.1+    140728 H21  0.3+  0.0     140728 194  0.1-  0.1+
    140727 F51  0.1-  0.1+    140728 H21  0.1+  0.0     140728 194  0.0   0.1+
    140727 F51  0.0   0.2-    140728 H21  0.2-  0.1-
    140727 F51  0.1+  0.1+    140728 194  0.1-  0.1-
    
    Ephemeris:
    2014 OO6                 a,e,i = 2.11, 0.67, 1                   q = 0.7077
    Date    TT    R. A. (2000) Decl.     Delta      r     Elong.  Phase     V
    2014 06 28    20 49 01.8 -17 38 33   0.5819  1.5346   146.2    21.6    24.0
    ...
    2014 07 13    20 51 29.0 -18 03 16   0.3836  1.3833   160.0    14.5    22.6
    ...
    2014 07 21    20 49 08.2 -18 48 29   0.2889  1.3004   168.4     9.1    21.7
    ...
    2014 07 27    20 44 32.4 -19 50 57   0.2226  1.2375   175.2     4.0    20.8
    2014 07 28    20 43 25.4 -20 05 05   0.2119  1.2270   176.2     3.1    20.6
    2014 07 29    20 42 10.5 -20 20 39   0.2013  1.2165   177.2     2.4    20.4
    ...
    2014 08 04    20 30 35.3 -22 38 32   0.1398  1.1532   172.2     6.9    19.7
    ...
    2014 08 12    19 39 00.1 -31 21 53   0.06359 1.0693   150.7    27.6    18.6
    ...
    2014 08 27    09 54 58.4 +03 32 16   0.09364 0.9182     9.4   169.6    34.5
    
    A. U. Tomatic                (C) Copyright 2014 MPC           M.P.E.C. 2014-O56
    

    Read MPEC 2014-O55 Read MPEC 2014-O57


    MPEC number:

    Enter an MPEC number in one of the following forms:

    • 1997-B01 (the full form)
    • J97B01 (the packed version of the full form)
    • B01 (the abbreviated form)